This demonstration page uses our WeatherBlox Daily Observations layout. Learn more.

Left ArrowRight Arrow

39.92423, -83.80882

Hourly Observations for January 27, 2019

Temp ( °F °C ) Dew Point ( °F °C ) Humidity (%) Winds ( mph kmh ) Pressure ( in mb ) Visibility ( mi km ) Precip ( " mm )
12:06 am 00:06 Cloudy with Light Snow 30 -1 30 -1 100 100 SSW 18 30 29.93 1013 3 4 N/A
12:19 am 00:19 Cloudy with Light Snow 30 -1 30 -1 100 100 SSW 15 24 29.93 1013 2 2 N/A
12:37 am 00:37 Cloudy with Light Snow 30 -1 30 -1 100 100 SW 17 28 29.93 1013 3 5 N/A
12:44 am 00:44 Cloudy with Light Snow 30 -1 30 -1 100 100 SW 15 24 29.93 1013 4 6 N/A
12:56 am 00:56 Cloudy with Light Snow 32 undefined 31 -0.6 96 96 SW 16 26 29.91 1013 6 10 N/A
1:56 am 01:56 Cloudy with Light Snow 33 0.6 31 -0.6 92 92 WSW 17 28 29.90 1013 8 13 N/A
2:05 am 02:05 Cloudy with Light Rain 34 1 30 -1 87 87 WSW 20 31 29.92 1013 7 11 N/A
2:56 am 02:56 Cloudy with Light Rain 33 0.6 30 -1.1 89 89 W 21 33 29.92 1013 10 16 N/A
3:17 am 03:17 Cloudy 32 undefined 28 -2 87 87 W 18 30 29.94 1014 10 16 N/A
3:56 am 03:56 Cloudy 32 undefined 28 -2.2 85 85 W 17 28 29.93 1013 10 16 N/A
4:47 am 04:47 Cloudy 28 -2 27 -3 93 93 WNW 17 28 29.98 1015 8 13 N/A
4:56 am 04:56 Cloudy 28 -2.2 26 -3.3 92 92 W 20 31 29.96 1015 8 13 N/A
5:56 am 05:56 Cloudy 25 -3.9 23 -5 92 92 W 18 30 30.00 1016 8 13 N/A
6:48 am 06:48 Cloudy 25 -4 19 -7 80 80 W 20 31 30.05 1018 10 16 N/A
7:56 am 07:56 Cloudy 19 -7.2 16 -8.9 88 88 WNW 14 22 30.08 1019 10 16 N/A
8:56 am 08:56 Cloudy with Light Snow 19 -7.2 15 -9.4 84 84 WNW 13 20 30.09 1019 9 14 N/A
9:56 am 09:56 Cloudy with Light Snow 17 -8.3 13 -10.6 84 84 WNW 14 22 30.11 1020 7 11 N/A
10:56 am 10:56 Partly Cloudy with Scattered Snow Showers 18 -7.8 13 -10.6 81 81 NW 9 15 30.14 1021 8 13 N/A
11:56 am 11:56 Sunny 19 -7.2 13 -10.6 77 77 NW 15 24 30.14 1021 9 14 N/A
12:56 pm 12:56 Sunny 20 -6.7 13 -10.6 74 74 WNW 14 22 30.12 1020 10 16 N/A
1:56 pm 13:56 Sunny 20 -6.7 11 -11.7 68 68 NW 9 15 30.12 1020 10 16 N/A
2:56 pm 14:56 Sunny 20 -6.7 10 -12.2 65 65 NW 9 15 30.10 1019 10 16 N/A
3:56 pm 15:56 Sunny 20 -6.7 10 -12.2 65 65 WNW 6 9 30.12 1020 10 16 N/A
4:56 pm 16:56 Sunny 19 -7.2 10 -12.2 68 68 NW 8 13 30.14 1021 10 16 N/A
5:56 pm 17:56 Clear 15 -9.4 7 -13.9 70 70 NNW 6 9 30.14 1021 10 16 N/A
6:56 pm 18:56 Clear 14 -10 8 -13.3 77 77 N N/A 30.12 1020 10 16 N/A
7:56 pm 19:56 Clear 13 -10.6 8 -13.3 81 81 N N/A 30.13 1020 10 16 N/A
8:56 pm 20:56 Clear 9 -12.8 7 -13.9 92 92 ENE 3 6 30.13 1020 10 16 N/A
9:56 pm 21:56 Mostly Cloudy 9 -12.8 6 -14.4 88 88 E 5 7 30.12 1020 10 16 N/A
10:56 pm 22:56 Cloudy 13 -10.6 8 -13.3 81 81 NE 6 9 30.12 1020 10 16 N/A
11:56 pm 23:56 Cloudy 14 -10 9 -12.8 80 80 SE 7 11 30.09 1019 10 16 N/A

Powered by AerisWeather